Temperature
23 22 22 22 21 21 21 21 20 20 20 19 19 19 19 19 19 18 18 18 18 18 18 18 18 18 18 18 18 18 18 18 18 18 18 18 18 18 18 18 18 18 18
23 22 22 22 22 21 21 21 20 20 20 20 19 19 19 19 19 18 18 18 18 18 18 18 18 18 18 18 18 18 18 18 18 18 18 18 18 18 18 18 18 18 18
23 23 22 22 22 22 21 21 21 20 20 20 19 19 19 19 18 18 18 18 18 18 18 18 18 18 18 18 18 18 18 18 18 17 17 17 17 17 17 17 17 17 17
23 23 23 22 22 22 22 21 21 20 20 20 19 19 19 19 19 18 18 18 18 18 18 18 18 18 18 18 18 18 18 18 17 17 17 17 17 17 17 17 17 17 17
23 23 23 23 23 22 22 21 21 20 20 20 19 19 19 19 19 18 18 18 18 18 18 18 18 18 18 18 17 17 17 17 17 17 17 17 17 17 17 17 17 17 17
23 23 23 23 23 22 22 21 21 21 20 20 20 19 19 19 19 18 18 18 18 18 18 18 17 17 17 17 17 17 17 17 17 17 17 17 17 17 17 17 17 17 17
23 23 23 23 22 22 22 21 21 21 20 20 20 20 19 19 19 19 18 18 18 18 18 17 17 17 17 17 17 17 17 17 17 17 17 17 17 16 16 16 16 16 17
23 23 23 23 23 22 22 22 21 21 21 20 20 20 19 19 19 19 18 18 18 18 17 17 17 17 17 17 17 17 17 17 17 17 17 16 16 16 16 16 16 16 16
23 23 23 23 23 22 22 22 22 21 21 20 20 20 19 19 19 18 18 18 18 18 17 17 17 17 17 17 17 17 17 17 17 17 16 16 16 16 16 16 16 16 16
22 22 23 23 23 22 22 22 22 21 21 20 20 20 19 19 19 18 18 18 18 17 17 17 17 17 17 17 17 17 17 17 17 16 16 16 16 16 16 16 16 16 16
22 22 22 22 22 22 22 22 21 21 20 20 20 20 19 19 19 18 18 18 18 17 17 17 17 17 17 17 17 17 17 16 16 16 16 16 16 16 16 16 16 16 16
22 22 22 22 22 22 22 21 21 21 21 20 20 20 19 19 18 18 18 18 17 17 17 17 17 17 17 16 16 16 16 16 16 16 16 16 16 16 16 16 16 16 16
22 22 22 21 21 21 21 21 21 21 20 20 20 19 19 19 18 18 17 17 17 17 17 17 17 16 16 16 16 16 16 16 16 16 16 16 16 16 16 15 15 16 15
21 21 21 21 21 21 21 21 21 20 20 20 20 19 19 18 18 18 17 17 17 17 17 17 16 16 16 16 16 16 16 16 16 16 15 15 15 15 15 15 15 15 15
20 20 21 21 21 20 20 20 20 20 20 20 19 19 19 18 18 17 17 17 17 16 16 16 16 16 16 16 15 15 15 15 15 15 15 15 15 15 15 15 15 15 15
20 20 20 21 20 20 20 20 20 20 19 19 19 19 19 18 18 17 17 17 17 16 16 16 16 16 16 15 15 15 15 15 15 15 15 15 15 15 15 14 14 14 14
20 20 20 21 21 20 20 20 20 19 19 19 19 18 18 18 18 17 17 17 16 16 16 16 16 15 16 15 15 15 15 14 14 14 14 14 14 14 14 14 14 14 14
20 20 20 20 20 20 20 20 19 19 19 18 18 18 18 17 17 17 16 16 16 16 16 16 15 15 15 15 15 15 14 14 14 14 14 14 14 14 14 14 14 14 14
21 21 20 21 20 20 20 19 19 19 19 18 18 17 17 17 17 17 16 16 16 16 16 15 15 15 15 14 14 14 14 14 14 14 14 14 14 14 13 13 13 14 14
20 20 20 20 20 20 19 19 19 19 18 18 18 17 17 17 17 17 16 16 16 16 15 15 15 15 14 14 14 14 14 14 14 13 13 13 13 13 13 13 13 13 13
20 20 20 20 20 20 19 19 19 18 18 18 17 17 17 16 16 16 16 16 15 15 15 15 14 14 14 14 14 13 13 13 13 13 13 13 13 13 13 13 13 12 12
20 19 19 19 19 19 19 19 19 18 18 17 17 17 16 16 16 16 16 15 15 14 14 14 14 14 14 14 13 13 13 13 13 13 13 13 13 12 12 12 12 12 12
19 19 19 19 19 19 19 19 19 18 17 17 17 16 16 16 16 15 15 15 14 14 14 14 14 14 13 13 13 13 13 13 12 12 12 12 12 12 12 12 12 12 12
18 18 18 18 18 18 18 18 18 17 17 17 16 16 16 16 15 15 15 14 14 14 13 13 13 13 13 13 13 13 13 12 12 12 12 12 12 12 12 12 12 12 12
18 18 18 18 18 18 17 17 17 17 17 16 16 16 15 15 15 15 14 14 14 14 13 13 13 13 13 13 12 12 12 12 12 12 12 12 12 12 12 12 12 12 11
17 17 17 18 17 17 17 17 16 16 16 16 15 15 15 15 15 14 14 14 14 13 13 13 13 13 13 12 12 12 12 12 12 11 11 11 11 11 11 11 11 11 11
Wind_Speed
9 7 8 8 8 7 7 7 6 5 5 3 2 2 1 1 1 1 1 2 2 2 2 1 0 0 1 1 1 1 1 1 1 1 1 2 1 1 1 1 1 2 3
6 7 8 8 9 9 8 8 7 7 6 4 3 2 2 1 1 0 0 1 2 2 2 1 1 1 1 1 1 2 1 0 1 2 1 1 2 2 1 1 1 2 2
11 10 10 10 10 10 10 10 8 7 6 5 3 3 2 2 1 1 0 1 1 2 2 2 1 1 1 1 1 2 3 2 1 1 2 2 2 2 2 1 1 1 1
11 10 11 10 11 10 9 8 8 7 6 6 5 5 3 3 2 2 1 1 0 1 2 2 1 1 1 1 1 1 2 3 1 1 0 1 2 1 1 2 2 2 2
12 12 12 12 10 9 8 8 7 7 6 6 6 5 4 3 2 1 1 0 0 0 1 2 1 1 1 1 1 1 2 2 2 2 1 1 1 1 1 2 2 2 2
12 11 10 9 8 8 8 7 8 6 6 6 6 6 6 4 3 2 1 1 0 1 1 1 1 1 1 1 1 2 2 2 2 2 2 2 2 2 2 2 2 2 2
10 10 10 10 9 9 9 8 8 7 6 6 6 6 6 6 5 4 3 2 1 1 2 2 2 1 1 1 1 2 1 2 3 3 3 3 3 2 2 2 2 2 2
9 11 11 11 11 11 10 10 9 7 7 6 6 5 5 4 4 4 3 3 3 2 2 2 2 1 1 1 1 1 2 1 2 3 3 3 3 3 3 3 2 2 2
7 9 9 9 10 11 10 11 10 8 7 7 6 5 5 5 4 3 3 2 2 2 1 1 1 1 1 1 1 1 2 2 2 3 3 3 3 3 3 3 3 3 3
4 5 7 9 9 9 9 9 9 9 7 7 6 6 5 5 4 3 3 2 2 2 1 1 1 1 1 1 1 1 2 1 2 2 2 3 2 2 2 3 3 3 3
6 6 6 7 8 7 8 8 8 7 7 7 6 5 5 5 4 4 4 3 3 3 3 2 2 1 1 1 1 1 1 1 2 2 2 3 3 2 2 3 3 3 3
5 5 6 7 7 8 7 8 7 7 7 7 6 6 5 5 5 5 4 4 3 3 3 3 2 2 1 1 1 2 1 2 2 3 2 3 2 2 2 2 3 4 4
4 5 5 6 7 7 7 8 8 8 7 6 6 5 5 5 5 5 4 4 4 3 3 3 2 2 2 2 2 2 2 2 3 3 3 3 3 3 3 3 3 3 3
4 4 4 5 5 6 7 7 7 6 6 6 6 6 6 6 5 5 4 4 4 4 4 3 3 3 2 2 2 2 2 2 2 3 3 3 4 4 4 4 3 3 2
4 5 5 5 5 5 5 5 6 5 6 6 6 6 5 5 4 4 4 4 4 4 4 3 3 2 2 2 2 2 3 2 3 3 3 3 4 4 4 3 3 3 2
4 5 5 5 5 6 6 6 6 5 5 5 5 4 4 4 4 4 4 3 3 3 3 3 3 3 3 3 4 3 3 3 3 3 4 4 3 3 3 3 4 4 3
5 6 6 5 6 6 5 6 6 6 6 5 4 4 3 3 3 4 3 4 4 3 3 3 3 3 3 3 3 4 3 3 3 3 3 3 3 3 2 3 3 3 4
5 5 5 5 5 5 4 4 5 6 6 5 4 4 4 3 3 3 4 4 3 3 3 3 3 3 3 3 2 2 2 2 3 3 3 2 3 3 2 2 3 3 4
6 5 6 5 5 6 5 5 5 6 5 5 5 4 5 4 4 4 4 4 3 3 3 2 3 3 3 3 2 2 1 1 3 3 2 2 3 3 2 1 3 4 4
3 3 4 4 5 5 7 7 6 6 6 6 5 5 5 5 5 5 4 3 3 3 3 2 3 3 4 3 3 3 2 1 2 2 2 3 3 3 2 2 2 4 5
2 3 4 4 5 6 7 6 6 7 6 4 4 4 4 5 4 3 3 3 3 2 2 2 3 3 3 3 3 3 2 2 2 2 2 2 4 4 3 3 3 5 4
2 3 3 2 3 6 7 6 6 5 4 4 4 4 4 3 3 3 2 3 3 2 2 2 2 2 2 3 4 4 3 2 2 2 2 3 4 4 3 2 3 4 2
2 3 4 3 2 3 5 6 4 4 5 4 4 4 3 2 3 3 3 3 3 2 2 2 2 3 2 2 4 4 3 2 2 2 3 4 4 3 2 2 2 1 1
3 3 3 3 1 1 2 2 2 4 5 5 4 3 3 3 2 2 3 3 3 3 2 3 3 3 2 2 1 2 2 1 1 2 2 2 1 1 1 2 2 1 1
2 3 4 3 2 1 1 1 2 4 5 4 4 3 3 3 2 2 2 3 3 4 4 3 3 3 3 4 3 2 2 2 2 1 0 1 1 1 2 2 2 2 1
3 3 3 3 2 1 1 1 3 5 5 4 3 3 2 2 3 2 1 2 1 0 2 2 3 3 3 3 2 3 3 3 3 2 1 1 1 1 2 2 2 2 2
Wind_Direction
211 192 184 178 171 171 174 178 176 174 158 150 154 159 186 197 188 204 196 197 197 179 167 194 217 163 156 185 179 155 114 50 91 83 24 352 348 273 267 262 260 256 241
192 184 180 179 181 180 182 183 183 177 172 172 166 164 155 164 166 73 85 190 196 192 187 180 186 176 153 113 125 137 137 129 122 126 97 358 337 332 315 283 260 266 241
194 192 189 190 186 188 190 193 188 180 176 165 139 116 84 61 64 72 138 243 207 199 184 168 156 148 155 180 191 173 166 179 177 125 140 152 239 301 325 306 292 273 243
193 193 192 190 193 196 191 186 181 178 173 163 159 158 166 180 199 193 206 257 198 178 179 165 155 145 156 183 215 183 178 157 176 194 157 159 163 171 302 312 305 292 253
194 194 195 193 191 187 183 180 173 175 172 167 167 165 167 176 168 150 160 223 348 166 192 175 165 161 172 197 200 158 169 166 173 177 169 151 123 164 188 275 302 309 279
195 194 192 184 179 173 175 173 172 181 175 170 170 170 171 170 160 163 182 237 287 272 245 196 185 196 192 207 210 194 185 186 173 175 171 170 176 198 192 228 259 276 287
189 186 183 181 179 176 176 173 172 180 179 174 175 179 180 178 182 186 195 201 218 238 248 226 210 211 216 214 194 190 215 206 191 194 202 203 212 194 188 205 237 258 283
186 187 189 185 183 182 177 172 175 177 173 175 182 180 176 180 190 190 189 196 208 224 230 213 208 210 210 221 193 203 226 214 216 214 205 213 228 208 196 194 197 246 277
187 188 184 179 178 179 178 174 172 174 176 181 181 180 180 182 190 183 180 191 205 208 194 196 201 215 207 220 208 225 236 221 226 232 221 225 233 214 212 202 196 197 245
166 172 175 177 176 177 175 169 170 178 182 181 185 188 187 187 183 168 178 191 198 189 173 196 196 208 203 210 206 240 248 228 251 244 233 237 241 226 214 209 208 205 214
166 167 170 170 165 164 166 168 172 172 178 185 184 186 186 185 178 183 190 188 184 181 186 192 191 201 216 243 222 244 238 233 267 276 252 255 246 236 232 219 213 216 210
162 159 155 150 156 163 167 171 173 177 184 183 180 183 184 181 187 197 198 186 186 191 195 191 185 204 228 237 230 248 253 238 257 268 267 274 265 255 251 233 227 225 218
139 136 140 151 160 166 171 175 177 181 180 176 176 180 188 192 200 205 200 193 191 196 197 188 192 205 216 234 240 234 241 241 250 258 260 268 261 262 258 247 244 236 227
133 133 146 159 167 170 174 176 180 179 171 169 175 185 197 202 206 205 200 197 197 197 202 202 204 207 210 222 235 241 247 254 264 262 260 264 255 253 255 252 246 235 222
152 154 159 168 169 167 172 176 178 173 170 171 183 196 197 195 196 198 198 196 196 199 199 195 201 207 209 225 232 243 249 254 269 276 274 274 269 256 251 254 245 231 222
179 174 170 170 176 175 179 178 178 177 168 177 195 198 187 189 198 202 196 192 194 186 181 191 203 214 224 238 236 233 246 247 253 270 283 287 283 288 274 264 243 220 217
192 190 187 189 191 188 180 183 183 170 170 184 192 190 186 192 199 192 180 184 182 181 192 201 205 223 234 231 239 234 228 239 249 258 272 292 301 293 291 284 270 251 233
199 205 201 197 194 181 170 169 162 163 170 180 188 187 183 190 185 175 188 191 185 192 204 210 212 224 250 244 241 231 223 241 253 254 251 261 284 287 281 278 286 276 258
201 204 198 190 179 167 158 150 159 162 167 181 191 192 189 189 187 192 200 195 189 202 212 214 215 224 255 247 219 173 201 241 267 269 268 266 275 283 280 267 284 296 294
186 191 176 162 166 164 154 149 167 171 186 196 198 193 189 190 194 199 197 190 190 204 207 222 229 227 245 247 219 181 190 230 268 279 275 263 281 291 271 255 264 284 294
169 160 147 156 173 160 153 160 174 193 200 189 183 186 192 194 189 181 181 181 186 193 206 225 240 235 241 244 231 201 200 223 256 274 282 290 293 282 268 253 248 259 276
120 127 122 132 157 155 157 170 192 198 175 169 174 182 185 187 175 164 174 170 172 183 209 234 262 260 248 235 234 224 217 210 225 261 283 289 292 280 270 270 273 263 264
121 111 118 109 104 154 164 178 199 170 154 156 170 177 172 170 165 165 165 161 164 180 206 228 247 264 262 241 226 222 219 225 230 257 276 287 296 295 290 300 305 272 257
130 121 120 115 106 118 150 184 181 156 153 162 172 169 163 161 154 155 165 170 179 188 203 222 238 253 261 255 234 222 222 234 251 273 290 295 286 316 327 329 325 306 283
141 144 150 155 174 146 128 169 169 156 160 166 170 167 162 157 152 149 168 186 194 198 203 222 229 235 252 257 239 222 230 228 225 218 319 2 4 4 350 334 321 312 307
154 154 163 162 169 144 171 201 171 159 157 163 173 170 164 163 159 153 94 39 66 80 212 212 212 235 234 241 243 243 236 218 186 155 205 241 260 272 282 286 295 298 289
Height
1516 1519 1522 1524 1527 1529 1531 1533 1534 1536 1538 1539 1540 1541 1542 1543 1544 1545 1546 1546 1547 1547 1547 1547 1547 1547 1547 1548 1548 1548 1548 1548 1549 1549 1549 1550 1550 1551 1551 1551 1552 1552 1552
1514 1517 1520 1522 1524 1527 1529 1531 1533 1535 1537 1538 1540 1541 1542 1543 1543 1544 1545 1545 1546 1546 1546 1546 1546 1547 1547 1547 1547 1547 1547 1547 1548 1548 1549 1549 1550 1549 1549 1550 1550 1550 1550
1511 1514 1516 1519 1522 1524 1527 1529 1531 1533 1535 1537 1539 1540 1541 1542 1543 1543 1544 1544 1545 1545 1545 1545 1546 1546 1546 1546 1546 1546 1546 1546 1547 1548 1548 1548 1548 1548 1548 1548 1548 1548 1549
1507 1510 1513 1516 1518 1522 1525 1527 1530 1532 1534 1536 1537 1538 1539 1540 1541 1542 1542 1543 1543 1544 1544 1544 1544 1544 1545 1545 1545 1544 1545 1545 1546 1546 1547 1548 1547 1547 1546 1547 1547 1547 1547
1503 1506 1509 1512 1516 1519 1522 1525 1528 1530 1532 1534 1535 1537 1538 1539 1540 1540 1541 1542 1542 1542 1542 1543 1543 1543 1543 1543 1543 1543 1543 1544 1544 1544 1545 1545 1545 1545 1545 1544 1545 1545 1545
1499 1502 1506 1510 1513 1517 1520 1523 1525 1528 1530 1532 1534 1535 1536 1537 1538 1538 1539 1540 1540 1540 1541 1541 1541 1541 1542 1542 1542 1541 1541 1542 1542 1542 1542 1543 1543 1543 1543 1543 1542 1542 1543
1495 1499 1502 1506 1509 1513 1516 1520 1522 1525 1527 1529 1531 1532 1534 1535 1535 1536 1537 1537 1538 1538 1539 1539 1539 1540 1540 1540 1540 1540 1540 1540 1540 1540 1540 1540 1540 1541 1541 1541 1540 1540 1540
1492 1495 1498 1502 1505 1509 1512 1516 1519 1522 1525 1527 1528 1530 1531 1532 1533 1534 1535 1535 1536 1536 1537 1537 1537 1538 1538 1538 1538 1538 1538 1538 1538 1538 1538 1538 1538 1538 1538 1539 1539 1538 1537
1489 1492 1495 1499 1502 1506 1509 1512 1516 1519 1522 1524 1526 1528 1529 1530 1531 1532 1532 1533 1534 1534 1535 1535 1535 1535 1536 1536 1536 1536 1535 1535 1535 1535 1535 1535 1535 1536 1536 1536 1536 1537 1535
1488 1490 1493 1496 1499 1503 1506 1510 1513 1516 1518 1521 1523 1525 1526 1527 1528 1529 1530 1531 1532 1532 1533 1533 1533 1533 1534 1534 1534 1533 1533 1533 1533 1533 1533 1532 1532 1533 1533 1533 1533 1533 1533
1486 1488 1491 1494 1497 1501 1504 1508 1511 1513 1516 1518 1520 1522 1523 1524 1526 1527 1528 1529 1529 1530 1530 1531 1531 1531 1531 1531 1531 1531 1531 1531 1531 1530 1530 1530 1530 1530 1530 1530 1530 1530 1530
1485 1487 1490 1492 1496 1499 1502 1505 1508 1510 1513 1515 1517 1518 1520 1522 1523 1524 1524 1526 1526 1527 1528 1528 1528 1529 1529 1529 1529 1529 1529 1528 1528 1528 1527 1527 1527 1527 1526 1526 1526 1526 1526
1485 1487 1489 1491 1494 1497 1500 1503 1505 1508 1510 1512 1514 1516 1517 1518 1519 1520 1522 1523 1523 1524 1524 1525 1525 1526 1526 1526 1526 1526 1526 1526 1525 1525 1524 1524 1524 1523 1523 1523 1523 1522 1522
1485 1486 1488 1490 1493 1495 1498 1500 1503 1505 1508 1510 1511 1513 1514 1515 1516 1517 1518 1519 1520 1521 1521 1522 1522 1523 1523 1523 1523 1523 1523 1523 1522 1522 1521 1521 1520 1520 1520 1519 1519 1519 1518
1484 1486 1488 1490 1492 1494 1496 1498 1501 1503 1505 1507 1508 1510 1511 1512 1514 1514 1515 1516 1517 1517 1518 1519 1519 1520 1520 1520 1520 1520 1520 1520 1519 1519 1518 1518 1517 1517 1517 1516 1516 1516 1515
1484 1485 1487 1488 1490 1492 1494 1496 1499 1501 1503 1505 1506 1507 1508 1509 1510 1511 1512 1513 1514 1514 1515 1516 1517 1517 1517 1516 1517 1517 1517 1517 1516 1516 1515 1515 1514 1514 1513 1513 1512 1512 1512
1482 1484 1485 1486 1488 1490 1492 1494 1496 1499 1501 1503 1504 1505 1506 1507 1507 1508 1509 1509 1510 1511 1512 1512 1513 1513 1513 1514 1514 1514 1514 1513 1513 1513 1512 1512 1512 1511 1510 1509 1509 1508 1508
1479 1481 1483 1485 1487 1489 1491 1493 1495 1497 1499 1500 1502 1503 1504 1504 1505 1506 1506 1507 1508 1509 1509 1509 1510 1510 1510 1511 1511 1511 1510 1510 1510 1509 1509 1509 1508 1508 1507 1506 1505 1504 1504
1478 1479 1480 1482 1485 1486 1488 1491 1493 1495 1497 1498 1499 1500 1501 1502 1502 1502 1503 1504 1505 1505 1505 1506 1506 1506 1507 1507 1507 1507 1507 1507 1506 1506 1506 1506 1505 1505 1504 1503 1502 1500 1500
1476 1477 1478 1480 1482 1484 1487 1489 1491 1493 1494 1496 1497 1498 1499 1499 1499 1500 1500 1501 1502 1502 1502 1503 1503 1503 1503 1504 1504 1504 1504 1503 1503 1503 1503 1502 1502 1502 1501 1500 1498 1497 1496
1474 1475 1476 1477 1480 1482 1484 1486 1489 1490 1492 1494 1495 1496 1496 1497 1497 1498 1498 1498 1499 1499 1499 1500 1500 1500 1500 1500 1500 1501 1500 1500 1500 1500 1499 1499 1499 1498 1497 1496 1495 1494 1493
1472 1473 1474 1476 1478 1480 1482 1484 1486 1488 1491 1492 1492 1493 1494 1495 1495 1495 1496 1496 1496 1496 1496 1496 1496 1496 1496 1496 1496 1497 1497 1497 1497 1496 1496 1496 1496 1495 1494 1493 1492 1491 1490
1471 1472 1474 1475 1477 1479 1481 1482 1484 1486 1488 1489 1490 1491 1492 1492 1492 1493 1493 1493 1493 1493 1493 1493 1493 1493 1492 1492 1493 1493 1493 1493 1494 1494 1493 1493 1493 1492 1491 1491 1490 1489 1487
1470 1471 1473 1474 1475 1477 1479 1481 1482 1484 1485 1486 1487 1488 1489 1489 1490 1490 1490 1490 1490 1490 1490 1490 1490 1490 1490 1489 1489 1490 1490 1490 1491 1490 1490 1490 1490 1489 1489 1488 1487 1486 1485
1469 1471 1472 1473 1474 1475 1477 1479 1480 1481 1482 1484 1485 1485 1486 1486 1487 1487 1487 1488 1488 1488 1487 1487 1487 1487 1487 1487 1487 1487 1487 1487 1487 1488 1487 1487 1486 1486 1485 1485 1484 1483 1482
1467 1469 1470 1471 1472 1473 1476 1477 1478 1479 1480 1481 1482 1483 1484 1484 1485 1485 1485 1485 1486 1486 1486 1485 1485 1485 1485 1485 1485 1485 1485 1485 1485 1485 1484 1484 1483 1482 1482 1482 1481 1480 1479